Wind_Speed
36 36 36 37 39 40 39 38 37 37 36 36 35 34 33 33 33 33 33 32 31 31 31 30 28 27 26 25 25 25 25 25 25 25 25 25 25 25 25 26 26 27 27
35 35 36 38 39 41 41 40 40 40 39 38 37 36 35 35 36 35 35 34 33 32 31 30 29 27 26 25 25 24 25 24 24 25 26 27 27 27 28 29 29 29 30
34 33 34 34 38 41 42 42 42 42 41 42 40 40 40 39 38 37 36 35 34 33 32 31 30 28 27 26 26 25 25 25 26 27 28 29 31 30 30 31 32 32 32
37 37 37 37 37 39 42 43 44 44 44 43 41 40 39 38 36 36 35 35 34 33 32 31 30 29 29 28 27 27 27 28 28 29 30 31 33 33 33 33 33 32 33
36 37 38 39 36 36 37 40 42 43 44 42 41 40 39 38 38 37 36 35 34 33 32 32 31 31 30 30 30 30 30 30 30 31 31 33 33 34 34 34 34 35 35
36 33 36 37 34 33 34 36 39 40 41 41 41 40 41 40 39 37 36 35 34 34 33 33 33 33 33 32 32 32 31 31 31 31 31 32 33 34 35 36 36 38 36
33 38 38 38 38 39 39 40 40 42 42 41 41 41 40 39 38 36 38 37 36 36 36 35 34 34 34 34 34 33 33 32 32 31 31 31 32 33 35 36 38 41 41
30 31 33 34 33 33 32 35 37 40 42 42 42 43 42 40 40 38 38 38 38 37 36 36 36 36 36 35 35 35 34 33 33 32 32 32 33 34 35 38 41 44 46
24 24 24 26 28 27 26 28 31 35 37 38 39 40 39 39 38 37 37 37 37 37 37 37 37 37 37 36 36 36 35 35 35 35 35 34 35 36 38 40 44 48 52
22 22 24 24 23 25 27 29 31 34 35 37 38 37 37 37 37 38 38 37 37 37 38 38 38 38 37 37 37 37 37 37 37 37 37 38 38 39 40 42 45 48 52
24 24 24 24 25 26 27 27 29 31 34 35 36 35 36 37 37 38 38 38 37 38 38 39 39 39 39 39 39 39 39 39 39 40 40 41 42 42 44 45 48 50 52
22 22 23 23 23 23 23 24 25 28 31 33 34 35 36 37 37 37 37 38 38 39 39 40 40 41 41 42 42 42 42 42 42 42 44 44 45 46 48 49 50 53 53
21 22 22 22 22 22 23 24 25 28 30 32 35 36 36 37 37 37 38 39 39 40 41 42 42 43 44 44 44 44 43 44 45 45 46 47 48 49 49 49 51 54 55
18 18 19 21 22 22 24 25 26 27 29 31 34 36 37 38 38 39 40 41 42 42 43 44 45 45 45 45 45 46 46 46 47 47 48 48 49 50 50 52 54 55 53
19 20 21 22 23 24 25 27 28 29 31 34 36 38 40 40 41 41 42 43 44 44 44 46 46 47 47 47 47 48 48 48 49 49 50 50 50 51 54 55 54 52 51
10 13 16 18 20 23 25 28 30 31 33 34 35 39 40 41 41 41 43 45 46 45 46 47 47 48 47 47 48 49 49 50 51 51 51 52 54 55 54 53 52 51 48
11 13 15 16 17 18 19 22 25 27 29 30 31 34 36 38 39 41 42 44 44 45 46 47 48 49 49 48 49 49 52 54 54 54 56 56 55 53 52 49 48 47 45
17 19 21 23 24 25 25 26 27 28 29 31 32 33 35 38 39 41 43 44 45 47 49 50 50 51 52 51 51 53 55 56 58 60 61 60 56 52 48 47 46 44 42
27 29 29 31 31 32 33 34 35 36 37 39 40 41 42 44 45 46 48 49 51 52 53 54 55 56 55 55 56 56 57 59 60 59 57 55 52 47 43 43 42 41 40
31 33 34 36 37 38 40 41 42 44 45 46 47 48 50 52 54 54 55 56 57 58 59 60 61 61 62 60 59 56 56 57 55 52 51 48 47 44 42 41 40 40 39
33 34 35 36 37 38 39 41 43 44 45 48 51 53 55 56 57 59 60 60 61 62 63 64 64 64 62 59 55 53 52 51 50 49 47 46 44 43 42 42 42 42 41
33 32 34 34 34 34 37 39 40 41 43 45 47 49 50 52 53 56 58 59 60 60 60 61 61 60 59 56 55 53 51 50 50 49 48 47 46 45 44 43 43 42 41
32 33 33 33 32 32 34 36 35 35 36 37 39 42 44 46 47 49 50 51 53 56 57 57 57 56 54 55 54 54 53 52 50 50 49 48 47 45 45 44 42 39 37
33 34 35 35 34 33 34 35 35 35 36 37 37 37 38 38 39 41 42 43 44 45 49 51 52 51 50 50 50 49 49 50 50 49 48 47 46 44 42 42 42 40 40
33 34 34 34 32 31 31 32 33 34 35 36 37 36 35 34 34 34 34 35 36 37 39 40 41 42 42 39 41 42 44 45 45 45 45 46 46 45 44 42 41 40 39
32 33 32 32 31 31 31 30 31 32 33 34 34 33 33 32 32 31 30 28 30 29 29 28 29 28 27 24 23 27 32 34 33 35 38 39 39 40 40 39 37 37 36
Wind_Direction
243 240 236 234 234 234 235 235 233 231 232 233 233 233 234 235 235 236 237 239 241 243 244 246 246 245 245 246 249 253 254 256 257 259 260 261 262 262 262 263 263 263 263
245 242 240 237 236 237 238 237 235 233 232 232 232 233 235 236 235 237 239 240 242 243 245 246 246 247 248 250 253 255 258 259 260 259 260 260 259 258 260 261 262 263 265
251 248 246 243 240 240 238 237 236 235 233 232 232 233 234 234 236 238 240 242 243 244 245 246 246 247 249 251 253 255 256 258 260 261 259 260 261 260 258 258 259 260 262
254 246 242 240 241 242 240 239 237 235 235 235 236 237 239 242 243 241 242 243 244 245 246 247 248 250 252 253 254 255 255 256 256 257 258 259 259 261 260 260 260 261 262
253 249 250 247 243 245 244 242 240 238 239 238 237 237 238 238 237 238 240 242 244 245 247 249 250 251 252 253 254 254 254 255 255 255 255 256 256 258 259 260 263 264 266
250 250 252 250 248 247 246 243 241 241 241 239 237 236 237 237 239 243 246 246 247 247 248 250 252 253 253 255 256 258 259 259 258 257 256 256 257 258 259 260 261 263 262
247 241 236 234 236 236 237 238 236 236 236 236 237 237 236 238 236 236 243 246 248 249 249 249 251 254 256 258 259 260 259 259 259 258 257 257 259 262 265 268 270 270 270
244 239 238 241 243 245 244 245 244 239 235 233 232 234 237 236 237 237 237 240 242 246 249 252 253 255 257 259 260 262 262 263 263 263 263 263 264 267 271 276 281 282 283
237 237 237 237 240 242 243 240 239 238 236 235 234 233 233 234 237 239 241 243 244 246 248 250 252 255 257 259 261 263 265 266 267 268 268 268 270 274 280 285 290 293 293
229 226 227 229 232 235 234 233 231 231 232 233 232 232 233 234 235 237 239 241 243 246 248 251 254 256 258 261 263 265 266 268 269 271 272 273 275 278 284 289 292 294 295
221 220 221 224 228 231 231 230 228 228 230 230 230 231 233 234 235 237 239 240 243 245 249 252 255 258 260 262 263 266 267 269 271 272 274 276 278 282 286 290 293 296 298
221 225 228 233 236 236 231 227 226 226 227 229 231 230 231 233 235 238 240 242 244 246 249 252 255 258 261 263 264 265 267 270 273 275 278 280 282 285 289 291 293 295 297
228 229 232 236 233 229 224 220 220 221 222 225 228 230 231 233 235 238 241 243 246 248 250 253 255 257 259 261 263 266 269 272 274 277 280 283 285 287 290 292 293 295 295
215 221 229 233 236 237 236 232 228 224 222 223 224 227 230 231 233 235 239 242 245 248 250 253 255 257 259 262 265 268 271 273 276 279 282 285 287 290 291 292 294 293 290
213 212 215 220 226 232 238 242 241 237 233 228 225 225 226 228 231 234 237 241 245 247 250 252 255 257 259 262 265 268 270 273 277 281 284 286 288 289 290 290 289 286 283
225 222 227 233 236 240 243 245 246 244 242 239 236 234 233 234 236 238 240 243 245 247 249 252 255 258 260 264 266 269 271 274 278 281 284 287 288 288 287 284 283 281 276
268 268 267 265 261 258 257 257 256 255 254 252 250 247 248 248 248 248 249 251 252 253 255 256 258 261 263 265 269 272 276 278 280 282 284 285 284 282 281 278 276 274 273
282 281 279 278 276 275 272 270 266 265 265 263 261 259 258 257 256 256 256 257 258 258 259 260 262 264 266 270 272 275 277 281 284 286 286 284 282 279 276 274 272 270 270
286 285 283 280 279 277 275 273 272 272 271 269 267 265 263 261 261 261 262 262 262 263 264 266 267 269 272 273 275 277 279 280 280 279 278 278 277 276 272 270 271 270 267
295 292 290 289 289 288 286 283 281 277 275 274 273 272 272 271 270 268 267 267 267 268 268 269 270 272 272 273 274 274 274 274 273 272 271 270 271 269 270 271 270 268 269
296 293 290 287 285 282 280 277 276 276 276 275 275 274 273 273 272 271 270 269 269 268 268 268 267 268 268 268 268 267 267 268 267 267 266 266 266 267 269 271 272 274 275
295 292 291 292 292 290 287 285 282 280 277 274 272 271 270 269 269 268 268 268 268 267 266 266 265 265 264 264 263 263 263 263 263 263 263 264 265 266 266 267 269 271 272
297 295 295 294 292 291 290 288 288 286 285 283 281 278 276 275 273 272 271 270 268 267 266 266 265 264 263 262 261 261 260 259 260 261 262 264 265 266 266 267 269 269 265
299 297 296 295 296 294 291 290 289 288 286 284 284 283 282 282 279 276 273 272 271 270 268 266 266 265 263 262 262 260 260 259 258 259 259 261 265 265 264 263 263 264 268
300 300 299 298 298 295 293 292 291 289 286 284 284 285 286 285 283 279 275 274 273 274 272 271 269 268 266 265 263 262 261 259 259 259 258 258 258 259 261 262 263 264 265
302 300 301 303 304 302 299 298 294 290 288 286 284 284 284 285 287 284 277 273 279 276 274 274 277 268 267 257 257 260 262 262 261 259 259 258 257 257 258 260 260 260 261
Height
3048 3051 3055 3059 3062 3063 3066 3070 3073 3077 3081 3084 3087 3090 3093 3096 3099 3102 3104 3107 3110 3112 3114 3116 3118 3120 3121 3123 3124 3125 3126 3127 3128 3129 3129 3130 3131 3132 3132 3133 3134 3134 3134
3041 3043 3046 3050 3053 3056 3059 3062 3066 3069 3073 3077 3080 3084 3087 3089 3092 3095 3098 3100 3103 3105 3107 3109 3111 3113 3115 3116 3118 3119 3119 3120 3121 3122 3122 3123 3125 3126 3126 3127 3127 3127 3127
3034 3036 3039 3042 3045 3048 3051 3054 3059 3062 3065 3068 3072 3075 3077 3080 3083 3087 3090 3093 3096 3098 3100 3102 3104 3106 3108 3110 3111 3112 3113 3113 3114 3115 3116 3116 3116 3118 3119 3119 3120 3121 3121
3024 3026 3029 3032 3037 3040 3043 3047 3050 3053 3056 3060 3064 3068 3072 3074 3078 3080 3083 3085 3087 3090 3092 3094 3096 3098 3100 3102 3104 3105 3107 3107 3108 3108 3108 3109 3109 3109 3111 3112 3112 3113 3113
3015 3018 3021 3024 3029 3033 3037 3040 3042 3045 3049 3053 3057 3061 3064 3066 3068 3071 3074 3077 3079 3082 3085 3087 3089 3090 3092 3094 3095 3097 3099 3100 3100 3101 3101 3101 3101 3102 3102 3103 3103 3104 3104
3007 3010 3013 3017 3022 3025 3027 3031 3034 3037 3041 3045 3049 3052 3055 3058 3060 3064 3067 3069 3072 3074 3076 3078 3080 3082 3084 3086 3087 3088 3089 3090 3091 3092 3092 3092 3092 3093 3093 3094 3094 3094 3097
2996 3000 3004 3007 3010 3014 3017 3020 3023 3027 3031 3036 3039 3042 3046 3049 3053 3055 3058 3061 3064 3067 3069 3070 3071 3073 3075 3076 3078 3080 3081 3082 3083 3083 3083 3083 3083 3083 3082 3082 3082 3082 3084
2987 2992 2997 3002 3005 3008 3012 3014 3017 3018 3021 3025 3029 3033 3037 3041 3044 3046 3049 3052 3055 3057 3059 3061 3063 3064 3066 3067 3069 3070 3071 3072 3073 3073 3073 3074 3073 3073 3072 3071 3070 3069 3070
2981 2986 2992 2995 2999 3000 3003 3006 3007 3010 3013 3018 3021 3025 3030 3033 3036 3039 3042 3044 3046 3049 3050 3052 3053 3055 3056 3058 3059 3060 3060 3061 3061 3062 3062 3063 3062 3062 3061 3060 3059 3056 3053
2976 2980 2984 2987 2991 2993 2994 2996 2999 3001 3004 3008 3012 3016 3021 3024 3027 3030 3033 3035 3037 3039 3040 3042 3043 3044 3046 3047 3048 3048 3049 3050 3050 3050 3050 3051 3050 3050 3050 3049 3048 3046 3042
2972 2974 2977 2979 2982 2984 2986 2988 2990 2993 2996 2999 3003 3007 3011 3015 3018 3021 3023 3026 3028 3029 3030 3032 3033 3034 3035 3036 3037 3037 3038 3039 3039 3039 3039 3040 3038 3038 3038 3037 3036 3034 3031
2969 2971 2972 2974 2975 2977 2980 2981 2983 2986 2988 2991 2994 2997 3000 3004 3007 3010 3013 3015 3016 3018 3019 3020 3021 3022 3023 3024 3025 3026 3026 3027 3027 3028 3027 3028 3027 3026 3025 3024 3022 3019 3018
2964 2965 2966 2968 2969 2970 2972 2974 2976 2977 2979 2983 2985 2988 2990 2993 2996 2999 3001 3003 3005 3007 3008 3009 3010 3011 3012 3012 3014 3014 3015 3015 3015 3016 3015 3014 3013 3013 3012 3010 3008 3007 3003
2956 2958 2960 2961 2962 2963 2965 2966 2967 2968 2970 2973 2975 2977 2980 2982 2984 2986 2988 2991 2993 2994 2996 2997 2998 2999 2999 3000 3001 3002 3002 3002 3002 3001 3001 3000 2999 2997 2996 2995 2993 2991 2988
2953 2953 2953 2954 2954 2955 2956 2957 2958 2960 2961 2962 2963 2965 2967 2969 2971 2974 2976 2977 2979 2981 2983 2983 2985 2986 2986 2988 2989 2989 2989 2989 2988 2987 2986 2985 2985 2984 2982 2981 2980 2977 2974
2952 2951 2952 2952 2951 2951 2951 2951 2951 2952 2953 2955 2957 2957 2958 2959 2960 2962 2963 2964 2965 2968 2969 2970 2971 2973 2974 2975 2975 2974 2975 2975 2973 2973 2973 2971 2969 2969 2968 2965 2963 2962 2961
2949 2949 2948 2948 2948 2947 2947 2947 2946 2946 2947 2947 2948 2949 2950 2951 2952 2952 2952 2953 2954 2955 2956 2957 2958 2959 2960 2961 2961 2961 2958 2956 2958 2957 2956 2956 2956 2954 2952 2950 2948 2948 2947
2945 2944 2943 2942 2941 2940 2940 2940 2940 2939 2939 2939 2939 2939 2940 2940 2940 2940 2940 2941 2942 2942 2942 2943 2944 2944 2945 2946 2946 2945 2942 2940 2939 2938 2937 2937 2938 2938 2936 2935 2934 2935 2935
2938 2936 2934 2933 2932 2931 2930 2929 2929 2928 2927 2926 2926 2926 2926 2926 2926 2926 2926 2926 2925 2926 2926 2926 2926 2926 2929 2930 2928 2927 2925 2924 2925 2924 2923 2921 2920 2922 2922 2921 2921 2922 2923
2929 2927 2924 2922 2920 2918 2916 2915 2914 2913 2912 2911 2910 2910 2910 2909 2909 2909 2909 2909 2908 2908 2908 2908 2910 2910 2912 2912 2912 2911 2909 2908 2909 2909 2908 2909 2908 2908 2908 2908 2909 2908 2911
2919 2916 2914 2912 2911 2909 2908 2906 2904 2902 2900 2898 2896 2895 2895 2893 2892 2891 2890 2890 2890 2890 2890 2891 2892 2893 2894 2895 2894 2894 2892 2893 2894 2894 2895 2896 2896 2896 2896 2896 2895 2896 2897
2909 2907 2903 2901 2898 2895 2892 2890 2889 2887 2885 2884 2883 2882 2880 2878 2876 2874 2873 2872 2872 2872 2872 2872 2873 2874 2875 2876 2877 2877 2878 2879 2879 2880 2881 2882 2882 2883 2884 2883 2884 2884 2884
2899 2895 2892 2889 2888 2885 2881 2878 2876 2873 2870 2868 2867 2865 2864 2862 2861 2859 2858 2856 2855 2853 2854 2854 2854 2857 2858 2859 2860 2860 2862 2864 2864 2865 2866 2867 2868 2869 2870 2871 2872 2872 2872
2888 2884 2881 2878 2875 2873 2870 2866 2862 2860 2857 2855 2853 2852 2849 2849 2847 2845 2843 2841 2840 2839 2838 2838 2839 2841 2841 2843 2844 2846 2845 2847 2848 2850 2852 2853 2855 2856 2856 2857 2857 2859 2859
2878 2874 2870 2867 2864 2861 2858 2855 2852 2848 2845 2842 2840 2838 2837 2836 2834 2832 2831 2828 2828 2826 2825 2826 2826 2826 2828 2832 2829 2829 2831 2833 2835 2836 2837 2839 2840 2842 2844 2845 2846 2847 2847
2869 2864 2860 2856 2853 2849 2846 2844 2840 2836 2833 2831 2829 2827 2825 2823 2821 2819 2819 2819 2817 2816 2816 2817 2816 2817 2817 2819 2818 2818 2819 2821 2823 2823 2824 2826 2827 2829 2831 2833 2834 2834 2835